Powrót do katalogu

STARLINK-35795

AktywnyŁącznośćVLEO
NORAD 66369·PAYLOAD·🇺🇸 United States

Wystrzelony Nov 6, 2025 z Vandenberg Space Force Base

Loading…

Następne Przeloty (najbliższe 24 godziny)

TLE

ŚwieżeSource: CelesTrak SupGP

Epoka: Sep 14, 2026, 21:04 UTC

1 66369C 25254X   26257.87826389  .00002510  00000+0  74196-4 0  2576
2 66369  53.1583  69.6724 0001239  84.8406  47.6894 15.34377773    12

Śledź STARLINK-35795 w czasie rzeczywistym z AllMySat

Download on the App Store